| time (UTC) | temp C | wind direction | speed KPH | gust KPH | rain 1hr cm | rain 24hr cm | rain mn cm | humidity % | barometer mb |
| 20260906083007 | 21 | 325 | 1.6 | 4.8 | 0.00 | 0.15 | 0.00 | 89 | 1015.9 |
| 20260906082507 | 21 | 325 | 1.6 | 4.8 | 0.00 | 0.15 | 0.00 | 89 | 1015.9 |
| 20260906082006 | 21 | 325 | 1.6 | 4.8 | 0.00 | 0.15 | 0.00 | 89 | 1015.9 |
| 20260906081722 | 21 | 325 | 1.6 | 4.8 | 0.00 | 0.15 | 0.00 | 89 | 1015.9 |
| 20260906081007 | 22 | 351 | 1.6 | 3.2 | 0.00 | 0.15 | 0.00 | 89 | 1015.9 |
| 20260906080720 | 22 | 351 | 1.6 | 3.2 | 0.00 | 0.15 | 0.00 | 89 | 1015.9 |
| 20260906080007 | 22 | 347 | 3.2 | 9.7 | 0.00 | 0.15 | 0.00 | 90 | 1015.8 |
| 20260906075506 | 22 | 347 | 3.2 | 9.7 | 0.00 | 0.15 | 0.00 | 90 | 1015.8 |
| 20260906075008 | 22 | 347 | 3.2 | 9.7 | 0.00 | 0.15 | 0.00 | 90 | 1015.8 |
| 20260906074507 | 22 | 345 | 1.6 | 4.8 | 0.00 | 0.15 | 0.00 | 91 | 1015.7 |
| 20260906074006 | 22 | 345 | 1.6 | 4.8 | 0.00 | 0.15 | 0.00 | 91 | 1015.7 |
| 20260906073506 | 22 | 345 | 1.6 | 4.8 | 0.00 | 0.15 | 0.00 | 91 | 1015.7 |
| 20260906073222 | 22 | 345 | 1.6 | 4.8 | 0.00 | 0.15 | 0.00 | 91 | 1015.7 |
| 20260906072506 | 22 | 325 | 1.6 | 3.2 | 0.00 | 0.15 | 0.00 | 92 | 1015.7 |
| 20260906072007 | 22 | 325 | 1.6 | 3.2 | 0.00 | 0.15 | 0.00 | 92 | 1015.7 |
| 20260906071721 | 22 | 325 | 1.6 | 3.2 | 0.00 | 0.15 | 0.00 | 92 | 1015.7 |
| 20260906071222 | 22 | 321 | 1.6 | 3.2 | 0.00 | 0.15 | 0.00 | 92 | 1015.6 |
| 20260906070506 | 22 | 321 | 1.6 | 3.2 | 0.00 | 0.15 | 0.00 | 92 | 1015.6 |
| 20260906070008 | 22 | 322 | 0.0 | 1.6 | 0.00 | 0.15 | 0.00 | 92 | 1016.0 |
| 20260906065507 | 22 | 322 | 0.0 | 1.6 | 0.00 | 0.15 | 0.00 | 92 | 1016.0 |
| 20260906065006 | 22 | 322 | 0.0 | 1.6 | 0.00 | 0.15 | 0.00 | 92 | 1016.0 |
| 20260906064507 | 22 | 344 | 0.0 | 3.2 | 0.00 | 0.15 | 0.00 | 92 | 1015.9 |
| 20260906064220 | 22 | 344 | 0.0 | 3.2 | 0.00 | 0.15 | 0.00 | 92 | 1015.9 |
| 20260906063507 | 22 | 344 | 0.0 | 3.2 | 0.00 | 0.15 | 0.00 | 92 | 1015.9 |
| 20260906063006 | 22 | 8 | 0.0 | 1.6 | 0.00 | 0.15 | 0.00 | 91 | 1015.6 |
| 20260906062721 | 22 | 8 | 0.0 | 1.6 | 0.00 | 0.15 | 0.00 | 91 | 1015.6 |
| 20260906062222 | 22 | 8 | 0.0 | 1.6 | 0.00 | 0.15 | 0.00 | 91 | 1015.6 |
| 20260906061506 | 22 | 8 | 0.0 | 1.6 | 0.00 | 0.15 | 0.00 | 90 | 1015.6 |
| 20260906061006 | 22 | 8 | 0.0 | 1.6 | 0.00 | 0.15 | 0.00 | 90 | 1015.6 |
| 20260906060506 | 22 | 8 | 0.0 | 1.6 | 0.00 | 0.15 | 0.00 | 90 | 1015.6 |
| 20260906060007 | 22 | 338 | 0.0 | 1.6 | 0.00 | 0.15 | 0.00 | 90 | 1015.7 |
| 20260906055507 | 22 | 338 | 0.0 | 1.6 | 0.00 | 0.15 | 0.00 | 90 | 1015.7 |
| 20260906055007 | 22 | 338 | 0.0 | 1.6 | 0.00 | 0.15 | 0.00 | 90 | 1015.7 |
| 20260906054507 | 23 | 1 | 1.6 | 6.4 | 0.00 | 0.15 | 0.00 | 89 | 1015.6 |
| 20260906054007 | 23 | 1 | 1.6 | 6.4 | 0.00 | 0.15 | 0.00 | 89 | 1015.6 |
| 20260906053506 | 23 | 1 | 1.6 | 6.4 | 0.00 | 0.15 | 0.00 | 89 | 1015.6 |
| 20260906053007 | 23 | 342 | 1.6 | 6.4 | 0.00 | 0.15 | 0.00 | 90 | 1015.4 |
| 20260906052720 | 23 | 342 | 1.6 | 6.4 | 0.00 | 0.15 | 0.00 | 90 | 1015.4 |
| 20260906052221 | 23 | 342 | 1.6 | 6.4 | 0.00 | 0.15 | 0.00 | 90 | 1015.4 |
| 20260906051506 | 23 | 330 | 1.6 | 3.2 | 0.00 | 0.15 | 0.00 | 91 | 1015.4 |
| 20260906051006 | 23 | 330 | 1.6 | 3.2 | 0.00 | 0.15 | 0.00 | 91 | 1015.4 |
| 20260906050720 | 23 | 330 | 1.6 | 3.2 | 0.00 | 0.15 | 0.00 | 91 | 1015.4 |
| 20260906050007 | 23 | 331 | 1.6 | 3.2 | 0.00 | 0.15 | 0.00 | 92 | 1015.1 |
| 20260906045720 | 23 | 331 | 1.6 | 3.2 | 0.00 | 0.15 | 0.00 | 92 | 1015.1 |
| 20260906045221 | 23 | 331 | 1.6 | 3.2 | 0.00 | 0.15 | 0.00 | 92 | 1015.1 |
| 20260906044506 | 23 | 326 | 1.6 | 1.6 | 0.00 | 0.15 | 0.00 | 92 | 1015.0 |
| 20260906044007 | 23 | 326 | 1.6 | 1.6 | 0.00 | 0.15 | 0.00 | 92 | 1015.0 |
| 20260906043506 | 23 | 326 | 1.6 | 1.6 | 0.00 | 0.15 | 0.00 | 92 | 1015.0 |
| 20260906043006 | 23 | 325 | 1.6 | 3.2 | 0.00 | 0.15 | 0.00 | 91 | 1015.1 |
| 20260906042507 | 23 | 325 | 1.6 | 3.2 | 0.00 | 0.15 | 0.00 | 91 | 1015.1 |
| 20260906042221 | 23 | 325 | 1.6 | 3.2 | 0.00 | 0.15 | 0.00 | 91 | 1015.1 |
| 20260906041506 | 23 | 323 | 1.6 | 4.8 | 0.00 | 0.15 | 0.00 | 91 | 1015.0 |
| 20260906041007 | 23 | 323 | 1.6 | 4.8 | 0.00 | 0.15 | 0.00 | 91 | 1015.0 |
| 20260906040507 | 23 | 323 | 1.6 | 4.8 | 0.00 | 0.15 | 0.00 | 91 | 1015.0 |
| 20260906040221 | 23 | 323 | 1.6 | 4.8 | 0.00 | 0.15 | 0.00 | 91 | 1015.0 |
| 20260906035508 | 23 | 328 | 1.6 | 3.2 | 0.00 | 0.15 | 0.15 | 90 | 1015.0 |
| 20260906035007 | 23 | 328 | 1.6 | 3.2 | 0.00 | 0.15 | 0.15 | 90 | 1015.0 |
| 20260906034507 | 23 | 3 | 1.6 | 4.8 | 0.00 | 0.15 | 0.15 | 90 | 1015.0 |
| 20260906034006 | 23 | 3 | 1.6 | 4.8 | 0.00 | 0.15 | 0.15 | 90 | 1015.0 |
| 20260906033506 | 23 | 3 | 1.6 | 4.8 | 0.00 | 0.15 | 0.15 | 90 | 1015.0 |
| 20260906033007 | 23 | 4 | 1.6 | 4.8 | 0.00 | 0.15 | 0.15 | 88 | 1014.9 |
| 20260906032507 | 23 | 4 | 1.6 | 4.8 | 0.00 | 0.15 | 0.15 | 88 | 1014.9 |
| 20260906032221 | 23 | 4 | 1.6 | 4.8 | 0.00 | 0.15 | 0.15 | 88 | 1014.9 |
| 20260906031507 | 23 | 329 | 1.6 | 4.8 | 0.00 | 0.15 | 0.15 | 88 | 1014.9 |
| 20260906031006 | 23 | 329 | 1.6 | 4.8 | 0.00 | 0.15 | 0.15 | 88 | 1014.9 |
| 20260906030506 | 23 | 329 | 1.6 | 4.8 | 0.00 | 0.15 | 0.15 | 88 | 1014.9 |
| 20260906030006 | 23 | 222 | 1.6 | 4.8 | 0.00 | 0.15 | 0.15 | 87 | 1014.7 |
| 20260906025721 | 23 | 222 | 1.6 | 4.8 | 0.00 | 0.15 | 0.15 | 87 | 1014.7 |
| 20260906025007 | 23 | 222 | 1.6 | 4.8 | 0.00 | 0.15 | 0.15 | 87 | 1014.7 |
| 20260906024507 | 23 | 320 | 1.6 | 11.3 | 0.00 | 0.15 | 0.15 | 86 | 1014.7 |
| 20260906024007 | 23 | 320 | 1.6 | 11.3 | 0.00 | 0.15 | 0.15 | 86 | 1014.7 |
| 20260906023506 | 23 | 320 | 1.6 | 11.3 | 0.00 | 0.15 | 0.15 | 86 | 1014.7 |
| 20260906023220 | 23 | 320 | 1.6 | 11.3 | 0.00 | 0.15 | 0.15 | 86 | 1014.7 |
| 20260906022507 | 24 | 348 | 1.6 | 3.2 | 0.00 | 0.15 | 0.15 | 85 | 1014.4 |
| 20260906022007 | 24 | 348 | 1.6 | 3.2 | 0.00 | 0.15 | 0.15 | 85 | 1014.4 |
| 20260906021721 | 24 | 348 | 1.6 | 3.2 | 0.00 | 0.15 | 0.15 | 85 | 1014.4 |
| 20260906021007 | 25 | 315 | 1.6 | 6.4 | 0.00 | 0.15 | 0.15 | 84 | 1014.2 |
| 20260906020508 | 25 | 315 | 1.6 | 6.4 | 0.00 | 0.15 | 0.15 | 84 | 1014.2 |
| 20260906020007 | 25 | 315 | 1.6 | 8.0 | 0.00 | 0.15 | 0.15 | 83 | 1014.1 |
| 20260906015507 | 25 | 315 | 1.6 | 8.0 | 0.00 | 0.15 | 0.15 | 83 | 1014.1 |
| 20260906015006 | 25 | 315 | 1.6 | 8.0 | 0.00 | 0.15 | 0.15 | 83 | 1014.1 |
| 20260906014721 | 25 | 315 | 1.6 | 8.0 | 0.00 | 0.15 | 0.15 | 83 | 1014.1 |
| 20260906014006 | 25 | 313 | 1.6 | 9.7 | 0.00 | 0.15 | 0.15 | 82 | 1013.8 |
| 20260906013507 | 25 | 313 | 1.6 | 9.7 | 0.00 | 0.15 | 0.15 | 82 | 1013.8 |
| 20260906013220 | 25 | 313 | 1.6 | 9.7 | 0.00 | 0.15 | 0.15 | 82 | 1013.8 |
| 20260906012507 | 26 | 344 | 1.6 | 3.2 | 0.00 | 0.15 | 0.15 | 81 | 1013.8 |
| 20260906012220 | 26 | 344 | 1.6 | 3.2 | 0.00 | 0.15 | 0.15 | 81 | 1013.8 |
| 20260906011721 | 26 | 344 | 1.6 | 3.2 | 0.00 | 0.15 | 0.15 | 81 | 1013.8 |
| 20260906011007 | 26 | 313 | 1.6 | 4.8 | 0.00 | 0.15 | 0.15 | 81 | 1013.7 |
| 20260906010507 | 26 | 313 | 1.6 | 4.8 | 0.00 | 0.15 | 0.15 | 81 | 1013.7 |
| 20260906010006 | 27 | 8 | 1.6 | 4.8 | 0.00 | 0.15 | 0.15 | 82 | 1013.5 |
| 20260906005507 | 27 | 8 | 1.6 | 4.8 | 0.00 | 0.15 | 0.15 | 82 | 1013.5 |
| 20260906005006 | 27 | 8 | 1.6 | 4.8 | 0.00 | 0.15 | 0.15 | 82 | 1013.5 |
| 20260906004721 | 27 | 8 | 1.6 | 4.8 | 0.00 | 0.15 | 0.15 | 82 | 1013.5 |
| 20260906004006 | 27 | 179 | 1.6 | 8.0 | 0.00 | 0.15 | 0.15 | 83 | 1013.3 |
| 20260906003721 | 27 | 179 | 1.6 | 8.0 | 0.00 | 0.15 | 0.15 | 83 | 1013.3 |
| 20260906003007 | 27 | 163 | 1.6 | 3.2 | 0.00 | 0.15 | 0.15 | 83 | 1013.2 |
| 20260906002721 | 27 | 163 | 1.6 | 3.2 | 0.00 | 0.15 | 0.15 | 83 | 1013.2 |
| 20260906002006 | 27 | 163 | 1.6 | 3.2 | 0.00 | 0.15 | 0.15 | 83 | 1013.2 |
| 20260906001507 | 27 | 284 | 1.6 | 6.4 | 0.00 | 0.15 | 0.15 | 83 | 1013.2 |
| 20260906001006 | 27 | 284 | 1.6 | 6.4 | 0.00 | 0.15 | 0.15 | 83 | 1013.2 |
| 20260906000507 | 27 | 284 | 1.6 | 6.4 | 0.00 | 0.15 | 0.15 | 83 | 1013.2 |
| 20260906000007 | 28 | 236 | 1.6 | 8.0 | 0.00 | 0.15 | 0.15 | 81 | 1013.0 |
| 20260905235506 | 28 | 236 | 1.6 | 8.0 | 0.00 | 0.15 | 0.15 | 81 | 1013.0 |
| 20260905235221 | 28 | 236 | 1.6 | 8.0 | 0.00 | 0.15 | 0.15 | 81 | 1013.0 |
| 20260905234506 | 28 | 284 | 1.6 | 6.4 | 0.00 | 0.15 | 0.15 | 81 | 1013.1 |
| 20260905234007 | 28 | 284 | 1.6 | 6.4 | 0.00 | 0.15 | 0.15 | 81 | 1013.1 |
| 20260905233506 | 28 | 284 | 1.6 | 6.4 | 0.00 | 0.15 | 0.15 | 81 | 1013.1 |
| 20260905233007 | 28 | 32 | 0.0 | 1.6 | 0.00 | 0.15 | 0.15 | 83 | 1012.9 |
| 20260905232506 | 28 | 32 | 0.0 | 1.6 | 0.00 | 0.15 | 0.15 | 83 | 1012.9 |
| 20260905232007 | 28 | 32 | 0.0 | 1.6 | 0.00 | 0.15 | 0.15 | 83 | 1012.9 |
| 20260905231506 | 28 | 32 | 0.0 | 1.6 | 0.00 | 0.15 | 0.15 | 85 | 1012.7 |
| 20260905231006 | 28 | 32 | 0.0 | 1.6 | 0.00 | 0.15 | 0.15 | 85 | 1012.7 |
| 20260905230506 | 28 | 32 | 0.0 | 1.6 | 0.00 | 0.15 | 0.15 | 85 | 1012.7 |
| 20260905230007 | 28 | 32 | 1.6 | 3.2 | 0.00 | 0.15 | 0.15 | 83 | 1012.6 |
| 20260905225506 | 28 | 32 | 1.6 | 3.2 | 0.00 | 0.15 | 0.15 | 83 | 1012.6 |
| 20260905225007 | 28 | 32 | 1.6 | 3.2 | 0.00 | 0.15 | 0.15 | 83 | 1012.6 |
| 20260905224506 | 28 | 21 | 1.6 | 3.2 | 0.00 | 0.15 | 0.15 | 80 | 1012.7 |
| 20260905224006 | 28 | 21 | 1.6 | 3.2 | 0.00 | 0.15 | 0.15 | 80 | 1012.7 |
| 20260905223508 | 28 | 21 | 1.6 | 3.2 | 0.00 | 0.15 | 0.15 | 80 | 1012.7 |
| 20260905223006 | 29 | 42 | 0.0 | 1.6 | 0.15 | 0.15 | 0.15 | 80 | 1012.7 |
| 20260905222720 | 29 | 42 | 0.0 | 1.6 | 0.15 | 0.15 | 0.15 | 80 | 1012.7 |
| 20260905222007 | 29 | 42 | 0.0 | 1.6 | 0.15 | 0.15 | 0.15 | 80 | 1012.7 |
| 20260905221507 | 28 | 34 | 3.2 | 4.8 | 0.15 | 0.15 | 0.15 | 73 | 1012.8 |
| 20260905221006 | 28 | 34 | 3.2 | 4.8 | 0.15 | 0.15 | 0.15 | 73 | 1012.8 |
| 20260905220507 | 28 | 34 | 3.2 | 4.8 | 0.15 | 0.15 | 0.15 | 73 | 1012.8 |
| 20260905220008 | 27 | 39 | 1.6 | 4.8 | 0.15 | 0.15 | 0.15 | 82 | 1012.6 |
| 20260905215508 | 27 | 39 | 1.6 | 4.8 | 0.15 | 0.15 | 0.15 | 82 | 1012.6 |
| 20260905215006 | 27 | 39 | 1.6 | 4.8 | 0.15 | 0.15 | 0.15 | 82 | 1012.6 |
| 20260905214506 | 28 | 20 | 1.6 | 4.8 | 0.15 | 0.15 | 0.15 | 75 | 1012.9 |
| 20260905214221 | 28 | 20 | 1.6 | 4.8 | 0.15 | 0.15 | 0.15 | 75 | 1012.9 |
| 20260905213506 | 28 | 20 | 1.6 | 4.8 | 0.15 | 0.15 | 0.15 | 75 | 1012.9 |
| 20260905213006 | 33 | 187 | 3.2 | 8.0 | 0.00 | 0.00 | 0.00 | 61 | 1012.6 |
| 20260905212507 | 33 | 187 | 3.2 | 8.0 | 0.00 | 0.00 | 0.00 | 61 | 1012.6 |
| 20260905212007 | 33 | 187 | 3.2 | 8.0 | 0.00 | 0.00 | 0.00 | 61 | 1012.6 |
| 20260905211506 | 33 | 167 | 3.2 | 9.7 | 0.00 | 0.00 | 0.00 | 60 | 1012.6 |
| 20260905211007 | 33 | 167 | 3.2 | 9.7 | 0.00 | 0.00 | 0.00 | 60 | 1012.6 |
| 20260905210721 | 33 | 167 | 3.2 | 9.7 | 0.00 | 0.00 | 0.00 | 60 | 1012.6 |
| 20260905210006 | 33 | 173 | 3.2 | 9.7 | 0.00 | 0.00 | 0.00 | 63 | 1012.2 |
| 20260905205507 | 33 | 173 | 3.2 | 9.7 | 0.00 | 0.00 | 0.00 | 63 | 1012.2 |
| 20260905205006 | 33 | 173 | 3.2 | 9.7 | 0.00 | 0.00 | 0.00 | 63 | 1012.2 |
| 20260905204506 | 33 | 178 | 4.8 | 11.3 | 0.00 | 0.00 | 0.00 | 63 | 1012.6 |
| 20260905204007 | 33 | 178 | 4.8 | 11.3 | 0.00 | 0.00 | 0.00 | 63 | 1012.6 |
| 20260905203508 | 33 | 178 | 4.8 | 11.3 | 0.00 | 0.00 | 0.00 | 63 | 1012.6 |
| 20260905203006 | 33 | 180 | 3.2 | 9.7 | 0.00 | 0.00 | 0.00 | 62 | 1012.8 |
| 20260905202506 | 33 | 180 | 3.2 | 9.7 | 0.00 | 0.00 | 0.00 | 62 | 1012.8 |
| 20260905202006 | 33 | 180 | 3.2 | 9.7 | 0.00 | 0.00 | 0.00 | 62 | 1012.8 |
| 20260905201507 | 33 | 169 | 4.8 | 11.3 | 0.00 | 0.00 | 0.00 | 61 | 1013.0 |
| 20260905201007 | 33 | 169 | 4.8 | 11.3 | 0.00 | 0.00 | 0.00 | 61 | 1013.0 |
| 20260905200506 | 33 | 169 | 4.8 | 11.3 | 0.00 | 0.00 | 0.00 | 61 | 1013.0 |
| 20260905200007 | 32 | 179 | 3.2 | 9.7 | 0.00 | 0.00 | 0.00 | 63 | 1013.2 |
| 20260905195507 | 32 | 179 | 3.2 | 9.7 | 0.00 | 0.00 | 0.00 | 63 | 1013.2 |
| 20260905195006 | 32 | 179 | 3.2 | 9.7 | 0.00 | 0.00 | 0.00 | 63 | 1013.2 |
| 20260905194507 | 33 | 192 | 3.2 | 8.0 | 0.00 | 0.00 | 0.00 | 58 | 1013.5 |
| 20260905194006 | 33 | 192 | 3.2 | 8.0 | 0.00 | 0.00 | 0.00 | 58 | 1013.5 |
| 20260905193508 | 33 | 192 | 3.2 | 8.0 | 0.00 | 0.00 | 0.00 | 58 | 1013.5 |
| 20260905193007 | 33 | 164 | 3.2 | 6.4 | 0.00 | 0.00 | 0.00 | 60 | 1013.4 |
| 20260905192506 | 33 | 164 | 3.2 | 6.4 | 0.00 | 0.00 | 0.00 | 60 | 1013.4 |
| 20260905192220 | 33 | 164 | 3.2 | 6.4 | 0.00 | 0.00 | 0.00 | 60 | 1013.4 |
| 20260905191723 | 33 | 164 | 3.2 | 6.4 | 0.00 | 0.00 | 0.00 | 60 | 1013.4 |
| 20260905191006 | 33 | 41 | 3.2 | 8.0 | 0.00 | 0.00 | 0.00 | 61 | 1013.6 |
| 20260905190506 | 33 | 41 | 3.2 | 8.0 | 0.00 | 0.00 | 0.00 | 61 | 1013.6 |
| 20260905190222 | 33 | 41 | 3.2 | 8.0 | 0.00 | 0.00 | 0.00 | 61 | 1013.6 |
| 20260905185506 | 32 | 180 | 3.2 | 6.4 | 0.00 | 0.00 | 0.00 | 58 | 1013.9 |
| 20260905185006 | 32 | 180 | 3.2 | 6.4 | 0.00 | 0.00 | 0.00 | 58 | 1013.9 |
| 20260905184506 | 32 | 167 | 3.2 | 6.4 | 0.00 | 0.00 | 0.00 | 58 | 1014.3 |
| 20260905184221 | 32 | 167 | 3.2 | 6.4 | 0.00 | 0.00 | 0.00 | 58 | 1014.3 |
| 20260905183507 | 32 | 167 | 3.2 | 6.4 | 0.00 | 0.00 | 0.00 | 58 | 1014.3 |
| 20260905183007 | 32 | 187 | 3.2 | 4.8 | 0.00 | 0.00 | 0.00 | 60 | 1014.4 |
| 20260905182506 | 32 | 187 | 3.2 | 4.8 | 0.00 | 0.00 | 0.00 | 60 | 1014.4 |
| 20260905182007 | 32 | 187 | 3.2 | 4.8 | 0.00 | 0.00 | 0.00 | 60 | 1014.4 |
| 20260905181006 | 32 | 109 | 3.2 | 11.3 | 0.00 | 0.00 | 0.00 | 59 | 1014.5 |
| 20260905180506 | 32 | 109 | 3.2 | 11.3 | 0.00 | 0.00 | 0.00 | 59 | 1014.5 |
| 20260905180006 | 31 | 73 | 4.8 | 12.9 | 0.00 | 0.00 | 0.00 | 60 | 1014.7 |
| 20260905175506 | 31 | 73 | 4.8 | 12.9 | 0.00 | 0.00 | 0.00 | 60 | 1014.7 |
| 20260905175006 | 31 | 73 | 4.8 | 12.9 | 0.00 | 0.00 | 0.00 | 60 | 1014.7 |
| 20260905174720 | 31 | 73 | 4.8 | 12.9 | 0.00 | 0.00 | 0.00 | 60 | 1014.7 |
| 20260905174007 | 31 | 47 | 3.2 | 11.3 | 0.00 | 0.00 | 0.00 | 60 | 1014.6 |
| 20260905173722 | 31 | 47 | 3.2 | 11.3 | 0.00 | 0.00 | 0.00 | 60 | 1014.6 |
| 20260905173007 | 31 | 9 | 4.8 | 9.7 | 0.00 | 0.00 | 0.00 | 63 | 1014.9 |
| 20260905172506 | 31 | 9 | 4.8 | 9.7 | 0.00 | 0.00 | 0.00 | 63 | 1014.9 |
| 20260905172007 | 31 | 9 | 4.8 | 9.7 | 0.00 | 0.00 | 0.00 | 63 | 1014.9 |
| 20260905171506 | 30 | 27 | 4.8 | 11.3 | 0.00 | 0.00 | 0.00 | 61 | 1015.1 |
| 20260905171007 | 30 | 27 | 4.8 | 11.3 | 0.00 | 0.00 | 0.00 | 61 | 1015.1 |
| 20260905170507 | 30 | 27 | 4.8 | 11.3 | 0.00 | 0.00 | 0.00 | 61 | 1015.1 |
| 20260905170007 | 31 | 115 | 3.2 | 11.3 | 0.00 | 0.00 | 0.00 | 59 | 1015.2 |
| 20260905165508 | 31 | 115 | 3.2 | 11.3 | 0.00 | 0.00 | 0.00 | 59 | 1015.2 |
| 20260905165221 | 31 | 115 | 3.2 | 11.3 | 0.00 | 0.00 | 0.00 | 59 | 1015.2 |
| 20260905164507 | 30 | 122 | 3.2 | 9.7 | 0.00 | 0.00 | 0.00 | 63 | 1015.2 |
| 20260905164006 | 30 | 122 | 3.2 | 9.7 | 0.00 | 0.00 | 0.00 | 63 | 1015.2 |
| 20260905163507 | 30 | 122 | 3.2 | 9.7 | 0.00 | 0.00 | 0.00 | 63 | 1015.2 |
| 20260905163006 | 30 | 358 | 1.6 | 6.4 | 0.00 | 0.00 | 0.00 | 63 | 1015.0 |
| 20260905162507 | 30 | 358 | 1.6 | 6.4 | 0.00 | 0.00 | 0.00 | 63 | 1015.0 |
| 20260905162007 | 30 | 358 | 1.6 | 6.4 | 0.00 | 0.00 | 0.00 | 63 | 1015.0 |
| 20260905161507 | 29 | 10 | 4.8 | 11.3 | 0.00 | 0.00 | 0.00 | 66 | 1014.9 |
| 20260905161006 | 29 | 10 | 4.8 | 11.3 | 0.00 | 0.00 | 0.00 | 66 | 1014.9 |
| 20260905160507 | 29 | 10 | 4.8 | 11.3 | 0.00 | 0.00 | 0.00 | 66 | 1014.9 |
| 20260905160006 | 28 | 29 | 4.8 | 16.1 | 0.00 | 0.00 | 0.00 | 66 | 1015.1 |
| 20260905155506 | 28 | 29 | 4.8 | 16.1 | 0.00 | 0.00 | 0.00 | 66 | 1015.1 |
| 20260905155006 | 28 | 29 | 4.8 | 16.1 | 0.00 | 0.00 | 0.00 | 66 | 1015.1 |
| 20260905154507 | 27 | 51 | 3.2 | 9.7 | 0.00 | 0.00 | 0.00 | 67 | 1015.2 |
| 20260905154006 | 27 | 51 | 3.2 | 9.7 | 0.00 | 0.00 | 0.00 | 67 | 1015.2 |
| 20260905153721 | 27 | 51 | 3.2 | 9.7 | 0.00 | 0.00 | 0.00 | 67 | 1015.2 |
| 20260905153007 | 27 | 7 | 3.2 | 9.7 | 0.00 | 0.00 | 0.00 | 66 | 1015.3 |
| 20260905152721 | 27 | 7 | 3.2 | 9.7 | 0.00 | 0.00 | 0.00 | 66 | 1015.3 |
| 20260905152008 | 27 | 7 | 3.2 | 9.7 | 0.00 | 0.00 | 0.00 | 66 | 1015.3 |
| 20260905151506 | 27 | 13 | 6.4 | 17.7 | 0.00 | 0.00 | 0.00 | 67 | 1015.6 |
| 20260905151006 | 27 | 13 | 6.4 | 17.7 | 0.00 | 0.00 | 0.00 | 67 | 1015.6 |
| 20260905150721 | 27 | 13 | 6.4 | 17.7 | 0.00 | 0.00 | 0.00 | 67 | 1015.6 |
| 20260905150220 | 27 | 13 | 6.4 | 17.7 | 0.00 | 0.00 | 0.00 | 67 | 1015.6 |
| 20260905145507 | 27 | 9 | 4.8 | 16.1 | 0.00 | 0.00 | 0.00 | 70 | 1015.3 |
| 20260905145006 | 27 | 9 | 4.8 | 16.1 | 0.00 | 0.00 | 0.00 | 70 | 1015.3 |
| 20260905144507 | 26 | 356 | 4.8 | 14.5 | 0.00 | 0.00 | 0.00 | 73 | 1015.3 |
| 20260905144006 | 26 | 356 | 4.8 | 14.5 | 0.00 | 0.00 | 0.00 | 73 | 1015.3 |
| 20260905143507 | 26 | 356 | 4.8 | 14.5 | 0.00 | 0.00 | 0.00 | 73 | 1015.3 |
| 20260905143006 | 26 | 352 | 4.8 | 9.7 | 0.00 | 0.00 | 0.00 | 72 | 1015.3 |
| 20260905142507 | 26 | 352 | 4.8 | 9.7 | 0.00 | 0.00 | 0.00 | 72 | 1015.3 |
| 20260905142007 | 26 | 352 | 4.8 | 9.7 | 0.00 | 0.00 | 0.00 | 72 | 1015.3 |
| 20260905141721 | 26 | 352 | 4.8 | 9.7 | 0.00 | 0.00 | 0.00 | 72 | 1015.3 |
| 20260905141007 | 25 | 352 | 4.8 | 16.1 | 0.00 | 0.00 | 0.00 | 75 | 1015.5 |
| 20260905140507 | 25 | 352 | 4.8 | 16.1 | 0.00 | 0.00 | 0.00 | 75 | 1015.5 |
| 20260905140007 | 26 | 5 | 4.8 | 12.9 | 0.00 | 0.00 | 0.00 | 73 | 1015.4 |
| 20260905135507 | 26 | 5 | 4.8 | 12.9 | 0.00 | 0.00 | 0.00 | 73 | 1015.4 |
| 20260905135007 | 26 | 5 | 4.8 | 12.9 | 0.00 | 0.00 | 0.00 | 73 | 1015.4 |
| 20260905134506 | 25 | 353 | 6.4 | 16.1 | 0.00 | 0.00 | 0.00 | 75 | 1015.4 |
| 20260905134007 | 25 | 353 | 6.4 | 16.1 | 0.00 | 0.00 | 0.00 | 75 | 1015.4 |
| 20260905133506 | 25 | 353 | 6.4 | 16.1 | 0.00 | 0.00 | 0.00 | 75 | 1015.4 |
| 20260905133007 | 26 | 356 | 6.4 | 12.9 | 0.00 | 0.00 | 0.00 | 78 | 1015.4 |
| 20260905132506 | 26 | 356 | 6.4 | 12.9 | 0.00 | 0.00 | 0.00 | 78 | 1015.4 |
| 20260905132007 | 26 | 356 | 6.4 | 12.9 | 0.00 | 0.00 | 0.00 | 78 | 1015.4 |
| 20260905131506 | 25 | 355 | 6.4 | 16.1 | 0.00 | 0.00 | 0.00 | 83 | 1015.5 |
| 20260905131007 | 25 | 355 | 6.4 | 16.1 | 0.00 | 0.00 | 0.00 | 83 | 1015.5 |
| 20260905130506 | 25 | 355 | 6.4 | 16.1 | 0.00 | 0.00 | 0.00 | 83 | 1015.5 |
| 20260905130006 | 25 | 357 | 4.8 | 9.7 | 0.00 | 0.00 | 0.00 | 87 | 1015.4 |
| 20260905125507 | 25 | 357 | 4.8 | 9.7 | 0.00 | 0.00 | 0.00 | 87 | 1015.4 |
| 20260905125221 | 25 | 357 | 4.8 | 9.7 | 0.00 | 0.00 | 0.00 | 87 | 1015.4 |
| 20260905124506 | 24 | 360 | 3.2 | 8.0 | 0.00 | 0.00 | 0.00 | 90 | 1015.2 |
| 20260905124006 | 24 | 360 | 3.2 | 8.0 | 0.00 | 0.00 | 0.00 | 90 | 1015.2 |
| 20260905123507 | 24 | 360 | 3.2 | 8.0 | 0.00 | 0.00 | 0.00 | 90 | 1015.2 |
| 20260905123006 | 23 | 0 | 0.0 | 0.0 | 0.00 | 0.00 | 0.00 | 95 | 1014.9 |
| 20260905122506 | 23 | 0 | 0.0 | 0.0 | 0.00 | 0.00 | 0.00 | 95 | 1014.9 |
| 20260905122008 | 23 | 0 | 0.0 | 0.0 | 0.00 | 0.00 | 0.00 | 95 | 1014.9 |
| 20260905121507 | 23 | 0 | 0.0 | 0.0 | 0.00 | 0.00 | 0.00 | 95 | 1014.5 |
| 20260905121006 | 23 | 0 | 0.0 | 0.0 | 0.00 | 0.00 | 0.00 | 95 | 1014.5 |
| 20260905120507 | 23 | 0 | 0.0 | 0.0 | 0.00 | 0.00 | 0.00 | 95 | 1014.5 |
| 20260905120006 | 22 | 0 | 0.0 | 0.0 | 0.00 | 0.00 | 0.00 | 95 | 1014.4 |
| 20260905115506 | 22 | 0 | 0.0 | 0.0 | 0.00 | 0.00 | 0.00 | 95 | 1014.4 |
| 20260905115221 | 22 | 0 | 0.0 | 0.0 | 0.00 | 0.00 | 0.00 | 95 | 1014.4 |
| 20260905114720 | 22 | 0 | 0.0 | 0.0 | 0.00 | 0.00 | 0.00 | 95 | 1014.4 |
| 20260905114008 | 22 | 0 | 0.0 | 0.0 | 0.00 | 0.00 | 0.00 | 95 | 1014.4 |
| 20260905113506 | 22 | 0 | 0.0 | 0.0 | 0.00 | 0.00 | 0.00 | 95 | 1014.4 |
| 20260905113014 | 23 | 0 | 0.0 | 0.0 | 0.00 | 0.00 | 0.00 | 95 | 1014.2 |
| 20260905112507 | 23 | 0 | 0.0 | 0.0 | 0.00 | 0.00 | 0.00 | 95 | 1014.2 |
| 20260905112006 | 23 | 0 | 0.0 | 0.0 | 0.00 | 0.00 | 0.00 | 95 | 1014.2 |
| 20260905111506 | 23 | 0 | 0.0 | 0.0 | 0.00 | 0.00 | 0.00 | 95 | 1014.2 |
| 20260905111006 | 23 | 0 | 0.0 | 0.0 | 0.00 | 0.00 | 0.00 | 95 | 1014.2 |
| 20260905110508 | 23 | 0 | 0.0 | 0.0 | 0.00 | 0.00 | 0.00 | 95 | 1014.2 |
| 20260905110006 | 23 | 136 | 0.0 | 1.6 | 0.00 | 0.00 | 0.00 | 96 | 1014.2 |
| 20260905105722 | 23 | 136 | 0.0 | 1.6 | 0.00 | 0.00 | 0.00 | 96 | 1014.2 |
| 20260905105006 | 23 | 136 | 0.0 | 1.6 | 0.00 | 0.00 | 0.00 | 96 | 1014.2 |
| 20260905104507 | 23 | 0 | 0.0 | 0.0 | 0.00 | 0.00 | 0.00 | 96 | 1014.3 |
| 20260905104220 | 23 | 0 | 0.0 | 0.0 | 0.00 | 0.00 | 0.00 | 96 | 1014.3 |
| 20260905103506 | 23 | 0 | 0.0 | 0.0 | 0.00 | 0.00 | 0.00 | 96 | 1014.3 |
| 20260905103008 | 23 | 0 | 0.0 | 0.0 | 0.00 | 0.00 | 0.00 | 96 | 1014.1 |
| 20260905102506 | 23 | 0 | 0.0 | 0.0 | 0.00 | 0.00 | 0.00 | 96 | 1014.1 |
| 20260905102007 | 23 | 0 | 0.0 | 0.0 | 0.00 | 0.00 | 0.00 | 96 | 1014.1 |
| 20260905101719 | 23 | 0 | 0.0 | 0.0 | 0.00 | 0.00 | 0.00 | 96 | 1014.1 |
| 20260905101007 | 23 | 0 | 0.0 | 0.0 | 0.00 | 0.00 | 0.00 | 96 | 1014.2 |
| 20260905100507 | 23 | 0 | 0.0 | 0.0 | 0.00 | 0.00 | 0.00 | 96 | 1014.2 |
| 20260905100006 | 23 | 0 | 0.0 | 0.0 | 0.00 | 0.00 | 0.00 | 96 | 1014.3 |
| 20260905095506 | 23 | 0 | 0.0 | 0.0 | 0.00 | 0.00 | 0.00 | 96 | 1014.3 |
| 20260905095007 | 23 | 0 | 0.0 | 0.0 | 0.00 | 0.00 | 0.00 | 96 | 1014.3 |
| 20260905094508 | 23 | 0 | 0.0 | 0.0 | 0.00 | 0.00 | 0.00 | 96 | 1014.3 |
| 20260905094006 | 23 | 0 | 0.0 | 0.0 | 0.00 | 0.00 | 0.00 | 96 | 1014.3 |
| 20260905093719 | 23 | 0 | 0.0 | 0.0 | 0.00 | 0.00 | 0.00 | 96 | 1014.3 |
| 20260905093007 | 23 | 0 | 0.0 | 0.0 | 0.00 | 0.00 | 0.00 | 96 | 1014.2 |
| 20260905092507 | 23 | 0 | 0.0 | 0.0 | 0.00 | 0.00 | 0.00 | 96 | 1014.2 |
| 20260905092220 | 23 | 0 | 0.0 | 0.0 | 0.00 | 0.00 | 0.00 | 96 | 1014.2 |
| 20260905091506 | 22 | 0 | 0.0 | 0.0 | 0.00 | 0.00 | 0.00 | 96 | 1014.0 |
| 20260905091008 | 22 | 0 | 0.0 | 0.0 | 0.00 | 0.00 | 0.00 | 96 | 1014.0 |
| 20260905090506 | 22 | 0 | 0.0 | 0.0 | 0.00 | 0.00 | 0.00 | 96 | 1014.0 |
| 20260905090007 | 22 | 0 | 0.0 | 0.0 | 0.00 | 0.00 | 0.00 | 96 | 1014.0 |
| 20260905085507 | 22 | 0 | 0.0 | 0.0 | 0.00 | 0.00 | 0.00 | 96 | 1014.0 |
| 20260905085007 | 22 | 0 | 0.0 | 0.0 | 0.00 | 0.00 | 0.00 | 96 | 1014.0 |
| 20260905084506 | 23 | 0 | 0.0 | 0.0 | 0.00 | 0.00 | 0.00 | 96 | 1013.8 |
| 20260905084007 | 23 | 0 | 0.0 | 0.0 | 0.00 | 0.00 | 0.00 | 96 | 1013.8 |
| 20260905083721 | 23 | 0 | 0.0 | 0.0 | 0.00 | 0.00 | 0.00 | 96 | 1013.8 |